Location: Arleux
(50.3632°N, 2.8721°E)
Time: 19:40:47
(UTC+00:00)

Cosmos 1110 Rocket - Pass Details

Date: 15 December 2019
Orbit: 752 x 781 km, 74.0° (Epoch: 22 January)

Event Time Altitude Azimuth Distance (km) Brightness Sun altitude
Rises 06:04:53 0° 222° (SW) 3,201 7.0 -14.4°
Reaches altitude 10° 06:07:20 10° 229° (SW) 2,277 6.2 -14.1°
Maximum altitude 06:12:16 45° 302° (WNW) 1,030 4.2 -13.3°
Drops below altitude 10° 06:17:14 10° 15° (NNE) 2,288 6.4 -12.6°
Sets 06:19:43 0° 22° (NNE) 3,218 7.2 -12.2°
